NKS849 MDPP-KFLL

Flight info

Callsign NKS849
Flight time 1h 46m
Altitude 34000
Route MALVN3C MALVN Y396 RUMFO Y441 ZQA OLAHS3
Aircraft A21N/M-SDE3FGHIRWY/LB1

Departure

Time 2026-05-04 00:45
Airport Gregorio Luperon International Airport (MDPP)

Arrival

Time 2026-05-04 02:32
Airport Fort Lauderdale Hollywood International Airport (KFLL)
Time Latitude Longitude Altitude Speed Heading
2026-05-04 00:36 19.75657 -70.56422 41 ft 3 kts 162°
2026-05-04 00:36 19.75673 -70.56432 40 ft 4 kts 131°
2026-05-04 00:37 19.75683 -70.56449 37 ft 4 kts 109°
2026-05-04 00:37 19.75688 -70.56469 38 ft 4 kts 90°
2026-05-04 00:37 19.75686 -70.56486 38 ft 3 kts 73°
2026-05-04 00:37 19.75687 -70.56483 38 ft 3 kts 73°
2026-05-04 00:38 19.75693 -70.56463 38 ft 4 kts 72°
2026-05-04 00:38 19.75698 -70.56445 38 ft 3 kts 72°
2026-05-04 00:38 19.75699 -70.56443 38 ft 2 kts 72°
2026-05-04 00:40 19.75699 -70.56442 38 ft 1 kts 72°
2026-05-04 00:41 19.75703 -70.56429 38 ft 2 kts 72°
2026-05-04 00:41 19.75710 -70.56408 37 ft 3 kts 71°
2026-05-04 00:41 19.75734 -70.56391 36 ft 6 kts 10°
2026-05-04 00:41 19.75788 -70.56400 35 ft 10 kts 342°
2026-05-04 00:42 19.75860 -70.56424 35 ft 12 kts 343°
2026-05-04 00:42 19.75930 -70.56466 34 ft 13 kts 290°
2026-05-04 00:42 19.75915 -70.56562 35 ft 15 kts 252°
2026-05-04 00:42 19.75857 -70.56760 32 ft 39 kts 252°
2026-05-04 00:43 19.75778 -70.57036 31 ft 40 kts 252°
2026-05-04 00:43 19.75696 -70.57318 27 ft 40 kts 253°
2026-05-04 00:43 19.75612 -70.57607 27 ft 41 kts 253°
2026-05-04 00:43 19.75526 -70.57906 33 ft 43 kts 253°
2026-05-04 00:44 19.75435 -70.58213 34 ft 44 kts 252°
2026-05-04 00:44 19.75389 -70.58353 33 ft 13 kts 243°
2026-05-04 00:44 19.75384 -70.58391 33 ft 5 kts 331°
2026-05-04 00:44 19.75402 -70.58354 33 ft 10 kts 78°
2026-05-04 00:45 19.75477 -70.58075 34 ft 75 kts 73°
2026-05-04 00:45 19.75699 -70.57309 27 ft 139 kts 73°
2026-05-04 00:45 19.76024 -70.56207 261 ft 160 kts 75°
2026-05-04 00:45 19.76345 -70.55097 863 ft 156 kts 76°
2026-05-04 00:46 19.76651 -70.53960 1268 ft 168 kts 77°
2026-05-04 00:46 19.77013 -70.52716 1550 ft 188 kts 78°
2026-05-04 00:46 19.77428 -70.51333 1930 ft 205 kts 74°
2026-05-04 00:46 19.78313 -70.50051 2313 ft 232 kts 42°
2026-05-04 00:47 19.79869 -70.49316 2582 ft 263 kts
2026-05-04 00:47 19.81729 -70.49603 3017 ft 280 kts 336°
2026-05-04 00:47 19.83540 -70.50359 3746 ft 281 kts 352°
2026-05-04 00:47 19.85440 -70.50180 4627 ft 274 kts 20°
2026-05-04 00:48 19.87198 -70.49415 5444 ft 273 kts 23°
2026-05-04 00:48 19.88969 -70.48653 6166 ft 276 kts 20°
2026-05-04 00:48 19.90784 -70.47955 6839 ft 279 kts 18°
2026-05-04 00:48 19.92676 -70.47448 7455 ft 283 kts
2026-05-04 00:49 19.94652 -70.47286 8093 ft 287 kts
2026-05-04 00:49 19.96659 -70.47268 8704 ft 291 kts 352°
2026-05-04 00:49 19.98567 -70.47954 9282 ft 293 kts 326°
2026-05-04 00:49 19.99989 -70.49483 9875 ft 294 kts 299°
2026-05-04 00:50 20.00637 -70.51544 10289 ft 301 kts 275°
2026-05-04 00:50 20.00712 -70.53822 10553 ft 317 kts 269°
2026-05-04 00:50 20.00706 -70.56227 10779 ft 334 kts 270°
2026-05-04 00:50 20.00723 -70.58754 10992 ft 350 kts 270°
2026-05-04 00:51 20.00767 -70.61398 11199 ft 366 kts 271°
2026-05-04 00:51 20.00831 -70.64154 11402 ft 381 kts 271°
2026-05-04 00:51 20.00908 -70.67023 11597 ft 395 kts 271°
2026-05-04 00:51 20.00989 -70.69983 11806 ft 406 kts 271°
2026-05-04 00:52 20.01071 -70.73003 12204 ft 411 kts 271°
2026-05-04 00:52 20.01156 -70.76047 12644 ft 413 kts 271°
2026-05-04 00:52 20.01242 -70.79113 13104 ft 416 kts 272°
2026-05-04 00:52 20.01331 -70.82201 13583 ft 419 kts 272°
2026-05-04 00:53 20.01417 -70.85310 14021 ft 422 kts 272°
2026-05-04 00:53 20.01505 -70.88440 14412 ft 425 kts 272°
2026-05-04 00:53 20.01592 -70.91590 14812 ft 428 kts 271°
2026-05-04 00:53 20.01677 -70.94761 15250 ft 431 kts 271°
2026-05-04 00:54 20.01765 -70.97953 15722 ft 433 kts 271°
2026-05-04 00:54 20.01853 -71.01168 16158 ft 436 kts 271°
2026-05-04 00:54 20.01940 -71.04402 16576 ft 439 kts 271°
2026-05-04 00:54 20.02158 -71.07644 16976 ft 442 kts 278°
2026-05-04 00:55 20.02907 -71.10814 17367 ft 445 kts 289°
2026-05-04 00:55 20.04281 -71.13770 17753 ft 448 kts 302°
2026-05-04 00:55 20.06204 -71.16331 18121 ft 452 kts 314°
2026-05-04 00:55 20.08639 -71.18449 18454 ft 455 kts 326°
2026-05-04 00:56 20.11361 -71.20192 18749 ft 458 kts 329°
2026-05-04 00:56 20.14121 -71.21895 19039 ft 460 kts 329°
2026-05-04 00:56 20.16897 -71.23624 19313 ft 463 kts 329°
2026-05-04 00:56 20.19681 -71.25367 19635 ft 465 kts 329°
2026-05-04 00:57 20.22472 -71.27128 19948 ft 468 kts 328°
2026-05-04 00:57 20.25273 -71.28913 20235 ft 470 kts 328°
2026-05-04 00:57 20.28090 -71.30709 20542 ft 473 kts 328°
2026-05-04 00:57 20.30916 -71.32508 20841 ft 475 kts 328°
2026-05-04 00:58 20.33762 -71.34324 21149 ft 478 kts 328°
2026-05-04 00:58 20.36632 -71.36146 21522 ft 481 kts 328°
2026-05-04 00:58 20.39505 -71.37992 21917 ft 484 kts 326°
2026-05-04 00:58 20.42154 -71.40202 22231 ft 484 kts 314°
2026-05-04 00:59 20.44374 -71.42897 22577 ft 485 kts 307°
2026-05-04 00:59 20.46470 -71.45724 22915 ft 487 kts 306°
2026-05-04 00:59 20.48562 -71.48570 23239 ft 489 kts 307°
2026-05-04 00:59 20.50673 -71.51428 23525 ft 491 kts 307°
2026-05-04 01:00 20.52795 -71.54291 23791 ft 493 kts 306°
2026-05-04 01:00 20.54926 -71.57156 24112 ft 492 kts 307°
2026-05-04 01:00 20.57051 -71.60005 24469 ft 490 kts 307°
2026-05-04 01:00 20.59177 -71.62833 24820 ft 488 kts 307°
2026-05-04 01:01 20.61295 -71.65658 25161 ft 486 kts 307°
2026-05-04 01:01 20.63401 -71.68479 25499 ft 485 kts 307°
2026-05-04 01:01 20.65494 -71.71294 25836 ft 484 kts 307°
2026-05-04 01:01 20.67577 -71.74109 26177 ft 482 kts 306°
2026-05-04 01:02 20.69655 -71.76914 26540 ft 481 kts 306°
2026-05-04 01:02 20.71731 -71.79710 26894 ft 479 kts 306°
2026-05-04 01:02 20.73800 -71.82500 27245 ft 478 kts 306°
2026-05-04 01:02 20.75831 -71.85245 27593 ft 477 kts 306°
2026-05-04 01:03 20.77886 -71.88018 27940 ft 476 kts 306°
2026-05-04 01:03 20.79937 -71.90787 28293 ft 474 kts 306°
2026-05-04 01:03 20.81977 -71.93547 28664 ft 472 kts 306°
2026-05-04 01:03 20.84001 -71.96301 29051 ft 470 kts 306°
2026-05-04 01:04 20.86017 -71.99047 29407 ft 469 kts 305°
2026-05-04 01:04 20.88027 -72.01781 29747 ft 467 kts 306°
2026-05-04 01:04 20.90040 -72.04503 30069 ft 466 kts 306°
2026-05-04 01:04 20.92051 -72.07220 30349 ft 465 kts 306°
2026-05-04 01:05 20.94050 -72.09932 30613 ft 464 kts 306°
2026-05-04 01:05 20.96044 -72.12639 30874 ft 463 kts 306°
2026-05-04 01:05 20.98029 -72.15346 31134 ft 462 kts 306°
2026-05-04 01:05 21.00017 -72.18040 31385 ft 461 kts 306°
2026-05-04 01:06 21.02007 -72.20728 31640 ft 460 kts 306°
2026-05-04 01:06 21.03985 -72.23409 31871 ft 459 kts 306°
2026-05-04 01:06 21.05962 -72.26092 32095 ft 458 kts 306°
2026-05-04 01:06 21.07927 -72.28770 32331 ft 457 kts 306°
2026-05-04 01:07 21.09887 -72.31452 32554 ft 457 kts 306°
2026-05-04 01:07 21.11845 -72.34126 32773 ft 456 kts 306°
2026-05-04 01:07 21.13801 -72.36791 32999 ft 455 kts 306°
2026-05-04 01:07 21.15757 -72.39452 33216 ft 454 kts 306°
2026-05-04 01:08 21.17703 -72.42110 33421 ft 453 kts 306°
2026-05-04 01:08 21.19642 -72.44764 33631 ft 452 kts 306°
2026-05-04 01:08 21.21575 -72.47411 33839 ft 451 kts 306°
2026-05-04 01:08 21.23509 -72.50051 34033 ft 450 kts 306°
2026-05-04 01:09 21.25437 -72.52698 34098 ft 450 kts 306°
2026-05-04 01:09 21.29297 -72.57969 34069 ft 449 kts 306°
2026-05-04 01:10 21.33141 -72.63241 34064 ft 448 kts 306°
2026-05-04 01:10 21.36978 -72.68509 34061 ft 448 kts 306°
2026-05-04 01:11 21.40837 -72.73755 34061 ft 448 kts 306°
2026-05-04 01:11 21.44667 -72.79023 34064 ft 448 kts 306°
2026-05-04 01:12 21.48495 -72.84302 34064 ft 448 kts 306°
2026-05-04 01:12 21.52324 -72.89576 34063 ft 448 kts 306°
2026-05-04 01:13 21.56163 -72.94843 34067 ft 448 kts 306°
2026-05-04 01:13 21.59994 -73.00086 34068 ft 446 kts 305°
2026-05-04 01:14 21.63788 -73.05305 34062 ft 446 kts 305°
2026-05-04 01:14 21.67596 -73.10559 34062 ft 446 kts 305°
2026-05-04 01:15 21.71403 -73.15821 34068 ft 446 kts 305°
2026-05-04 01:15 21.75210 -73.21083 34069 ft 446 kts 305°
2026-05-04 01:16 21.79010 -73.26352 34069 ft 446 kts 305°
2026-05-04 01:16 21.82786 -73.31633 34071 ft 444 kts 305°
2026-05-04 01:17 21.86560 -73.36884 34068 ft 443 kts 305°
2026-05-04 01:17 21.90339 -73.42135 34069 ft 443 kts 305°
2026-05-04 01:18 21.94115 -73.47386 34078 ft 443 kts 304°
2026-05-04 01:18 21.97875 -73.52624 34067 ft 442 kts 304°
2026-05-04 01:19 22.01636 -73.57855 34070 ft 442 kts 304°
2026-05-04 01:19 22.05413 -73.63071 34068 ft 441 kts 304°
2026-05-04 01:20 22.09180 -73.68308 34066 ft 441 kts 304°
2026-05-04 01:20 22.12934 -73.73545 34065 ft 442 kts 304°
2026-05-04 01:21 22.16683 -73.78794 34066 ft 441 kts 304°
2026-05-04 01:21 22.20432 -73.84040 34062 ft 441 kts 304°
2026-05-04 01:22 22.24177 -73.89287 34065 ft 441 kts 304°
2026-05-04 01:22 22.27902 -73.94502 34063 ft 441 kts 304°
2026-05-04 01:23 22.31642 -73.99761 34071 ft 441 kts 304°
2026-05-04 01:23 22.35412 -74.05048 34070 ft 441 kts 303°
2026-05-04 01:24 22.39128 -74.10273 34070 ft 441 kts 303°
2026-05-04 01:24 22.42868 -74.15538 34064 ft 441 kts 303°
2026-05-04 01:25 22.46596 -74.20811 34066 ft 441 kts 303°
2026-05-04 01:25 22.50338 -74.26075 34066 ft 441 kts 303°
2026-05-04 01:26 22.54073 -74.31342 34062 ft 441 kts 303°
2026-05-04 01:26 22.57801 -74.36619 34069 ft 441 kts 303°
2026-05-04 01:27 22.61534 -74.41899 34068 ft 442 kts 303°
2026-05-04 01:27 22.64631 -74.46291 34075 ft 442 kts 303°
2026-05-04 01:28 22.68389 -74.51610 34066 ft 442 kts 303°
2026-05-04 01:28 22.72112 -74.56899 34070 ft 442 kts 303°
2026-05-04 01:29 22.75812 -74.62148 34055 ft 441 kts 303°
2026-05-04 01:29 22.79524 -74.67428 34059 ft 440 kts 303°
2026-05-04 01:30 22.83237 -74.72709 34069 ft 440 kts 303°
2026-05-04 01:30 22.86935 -74.77999 34068 ft 440 kts 302°
2026-05-04 01:31 22.90623 -74.83302 34064 ft 440 kts 302°
2026-05-04 01:31 22.94321 -74.88599 34058 ft 440 kts 302°
2026-05-04 01:32 22.98026 -74.93891 34059 ft 440 kts 303°
2026-05-04 01:32 23.01735 -74.99187 34052 ft 440 kts 303°
2026-05-04 01:33 23.05430 -75.04471 34068 ft 438 kts 302°
2026-05-04 01:33 23.09153 -75.09691 34063 ft 437 kts 306°
2026-05-04 01:34 23.13255 -75.14593 34062 ft 439 kts 307°
2026-05-04 01:34 23.17369 -75.19492 34062 ft 439 kts 307°
2026-05-04 01:35 23.21487 -75.24382 34058 ft 439 kts 307°
2026-05-04 01:35 23.25575 -75.29250 34059 ft 439 kts 307°
2026-05-04 01:36 23.29687 -75.34148 34059 ft 439 kts 307°
2026-05-04 01:36 23.33796 -75.39056 34059 ft 439 kts 307°
2026-05-04 01:37 23.37901 -75.43964 34061 ft 438 kts 307°
2026-05-04 01:37 23.41992 -75.48848 34063 ft 436 kts 306°
2026-05-04 01:38 23.46073 -75.53730 34058 ft 436 kts 306°
2026-05-04 01:38 23.50154 -75.58617 34057 ft 436 kts 306°
2026-05-04 01:39 23.54235 -75.63504 34056 ft 436 kts 306°
2026-05-04 01:39 23.58312 -75.68396 34056 ft 436 kts 306°
2026-05-04 01:40 23.62389 -75.73288 34059 ft 436 kts 306°
2026-05-04 01:40 23.66467 -75.78187 34059 ft 436 kts 306°
2026-05-04 01:41 23.70545 -75.83082 34057 ft 436 kts 306°
2026-05-04 01:41 23.74622 -75.87976 34069 ft 434 kts 306°
2026-05-04 01:42 23.78667 -75.92857 34061 ft 434 kts 306°
2026-05-04 01:42 23.82718 -75.97738 34057 ft 434 kts 306°
2026-05-04 01:43 23.86762 -76.02628 34054 ft 434 kts 306°
2026-05-04 01:43 23.90806 -76.07517 34054 ft 434 kts 306°
2026-05-04 01:44 23.94850 -76.12407 34056 ft 433 kts 305°
2026-05-04 01:44 23.98870 -76.17286 34061 ft 429 kts 306°
2026-05-04 01:45 24.02871 -76.22142 34051 ft 430 kts 306°
2026-05-04 01:45 24.08866 -76.29428 34050 ft 429 kts 306°
2026-05-04 01:46 24.12862 -76.34289 34051 ft 430 kts 306°
2026-05-04 01:46 24.16839 -76.39113 34048 ft 429 kts 306°
2026-05-04 01:47 24.20831 -76.43976 34050 ft 429 kts 306°
2026-05-04 01:47 24.24821 -76.48842 34050 ft 429 kts 306°
2026-05-04 01:48 24.28815 -76.53713 34049 ft 430 kts 306°
2026-05-04 01:48 24.32810 -76.58592 34047 ft 430 kts 306°
2026-05-04 01:49 24.36803 -76.63482 34046 ft 430 kts 306°
2026-05-04 01:49 24.40798 -76.68373 34043 ft 430 kts 306°
2026-05-04 01:50 24.44805 -76.73288 34051 ft 434 kts 306°
2026-05-04 01:50 24.48837 -76.78238 34041 ft 435 kts 306°
2026-05-04 01:51 24.52867 -76.83197 34036 ft 435 kts 306°
2026-05-04 01:51 24.56899 -76.88154 34045 ft 435 kts 306°
2026-05-04 01:52 24.60935 -76.93120 34042 ft 436 kts 306°
2026-05-04 01:52 24.64969 -76.98086 34037 ft 436 kts 306°
2026-05-04 01:53 24.69000 -77.03059 34039 ft 436 kts 306°
2026-05-04 01:53 24.73027 -77.08038 34041 ft 436 kts 306°
2026-05-04 01:54 24.77057 -77.13015 34045 ft 435 kts 306°
2026-05-04 01:54 24.81085 -77.17999 34044 ft 436 kts 306°
2026-05-04 01:55 24.85107 -77.22991 34050 ft 436 kts 306°
2026-05-04 01:55 24.89119 -77.27958 34047 ft 434 kts 306°
2026-05-04 01:56 24.93090 -77.32898 34048 ft 434 kts 305°
2026-05-04 01:56 24.97094 -77.37869 34050 ft 434 kts 305°
2026-05-04 01:57 25.01078 -77.42855 34050 ft 432 kts 303°
2026-05-04 01:57 25.04031 -77.48468 34052 ft 420 kts 288°
2026-05-04 01:58 25.06234 -77.54435 34051 ft 420 kts 287°
2026-05-04 01:58 25.08439 -77.60401 34051 ft 420 kts 287°
2026-05-04 01:59 25.10654 -77.66346 34045 ft 419 kts 287°
2026-05-04 01:59 25.12873 -77.72292 34065 ft 419 kts 287°
2026-05-04 02:00 25.15070 -77.78186 34043 ft 413 kts 287°
2026-05-04 02:00 25.17255 -77.84064 34039 ft 414 kts 287°
2026-05-04 02:01 25.19447 -77.89950 34040 ft 414 kts 287°
2026-05-04 02:01 25.21642 -77.95833 34050 ft 414 kts 287°
2026-05-04 02:02 25.23818 -78.01688 34037 ft 411 kts 287°
2026-05-04 02:02 25.25981 -78.07533 34037 ft 411 kts 287°
2026-05-04 02:03 25.28138 -78.13384 34036 ft 411 kts 287°
2026-05-04 02:03 25.30313 -78.19213 33859 ft 408 kts 288°
2026-05-04 02:04 25.31462 -78.22092 32911 ft 411 kts 288°
2026-05-04 02:04 25.32627 -78.24992 32029 ft 414 kts 288°
2026-05-04 02:04 25.33796 -78.27902 31365 ft 414 kts 288°
2026-05-04 02:04 25.34962 -78.30806 30772 ft 412 kts 288°
2026-05-04 02:05 25.36116 -78.33691 30203 ft 409 kts 288°
2026-05-04 02:05 25.37262 -78.36564 29545 ft 407 kts 288°
2026-05-04 02:05 25.38406 -78.39425 28887 ft 407 kts 288°
2026-05-04 02:05 25.39553 -78.42292 28265 ft 409 kts 289°
2026-05-04 02:06 25.40702 -78.45174 27639 ft 410 kts 289°
2026-05-04 02:06 25.41838 -78.48058 26987 ft 407 kts 288°
2026-05-04 02:06 25.42939 -78.50935 26334 ft 405 kts 288°
2026-05-04 02:06 25.44030 -78.53785 25693 ft 401 kts 288°
2026-05-04 02:07 25.45110 -78.56611 25084 ft 396 kts 288°
2026-05-04 02:07 25.46177 -78.59403 24461 ft 393 kts 289°
2026-05-04 02:07 25.47243 -78.62175 23818 ft 390 kts 289°
2026-05-04 02:07 25.48282 -78.64885 23231 ft 384 kts 289°
2026-05-04 02:08 25.49319 -78.67599 22899 ft 372 kts 289°
2026-05-04 02:08 25.50303 -78.70164 22478 ft 363 kts 288°
2026-05-04 02:08 25.51284 -78.72731 21838 ft 361 kts 288°
2026-05-04 02:08 25.52257 -78.75274 21302 ft 357 kts 288°
2026-05-04 02:09 25.53247 -78.77872 20638 ft 381 kts 289°
2026-05-04 02:09 25.54313 -78.80683 20116 ft 410 kts 289°
2026-05-04 02:09 25.55451 -78.83668 19625 ft 425 kts 289°
2026-05-04 02:09 25.56603 -78.86678 19138 ft 424 kts 289°
2026-05-04 02:10 25.57750 -78.89675 18658 ft 422 kts 289°
2026-05-04 02:10 25.58890 -78.92663 18138 ft 420 kts 289°
2026-05-04 02:10 25.60019 -78.95633 17583 ft 417 kts 289°
2026-05-04 02:10 25.61139 -78.98585 17049 ft 415 kts 289°
2026-05-04 02:11 25.62256 -79.01524 16534 ft 413 kts 289°
2026-05-04 02:11 25.63368 -79.04444 16037 ft 410 kts 289°
2026-05-04 02:11 25.64464 -79.07357 15571 ft 409 kts 289°
2026-05-04 02:11 25.65551 -79.10259 15117 ft 407 kts 289°
2026-05-04 02:12 25.66634 -79.13145 14638 ft 405 kts 289°
2026-05-04 02:12 25.67711 -79.16022 14145 ft 403 kts 289°
2026-05-04 02:12 25.68784 -79.18884 13642 ft 401 kts 290°
2026-05-04 02:12 25.69841 -79.21695 13209 ft 388 kts 290°
2026-05-04 02:13 25.70853 -79.24402 12926 ft 372 kts 289°
2026-05-04 02:13 25.71824 -79.26999 12704 ft 357 kts 289°
2026-05-04 02:13 25.72757 -79.29489 12513 ft 342 kts 289°
2026-05-04 02:13 25.73639 -79.31873 12335 ft 327 kts 289°
2026-05-04 02:14 25.74481 -79.34158 12165 ft 313 kts 289°
2026-05-04 02:14 25.75283 -79.36347 11996 ft 299 kts 289°
2026-05-04 02:14 25.76051 -79.38441 11681 ft 287 kts 289°
2026-05-04 02:14 25.76791 -79.40465 11228 ft 281 kts 289°
2026-05-04 02:15 25.77522 -79.42463 10710 ft 278 kts 289°
2026-05-04 02:15 25.78245 -79.44444 10186 ft 276 kts 289°
2026-05-04 02:15 25.78964 -79.46409 9622 ft 274 kts 289°
2026-05-04 02:15 25.79438 -79.47703 9247 ft 273 kts 289°
2026-05-04 02:16 25.80150 -79.49644 8686 ft 271 kts 289°
2026-05-04 02:16 25.80865 -79.51605 8283 ft 274 kts 289°
2026-05-04 02:16 25.81577 -79.53550 7920 ft 270 kts 289°
2026-05-04 02:16 25.82281 -79.55476 7602 ft 269 kts 289°
2026-05-04 02:17 25.82983 -79.57397 7288 ft 268 kts 289°
2026-05-04 02:17 25.83681 -79.59307 6965 ft 266 kts 289°
2026-05-04 02:17 25.84380 -79.61209 6623 ft 266 kts 290°
2026-05-04 02:17 25.85091 -79.63095 6281 ft 265 kts 290°
2026-05-04 02:18 25.85824 -79.64966 6016 ft 265 kts 292°
2026-05-04 02:18 25.86614 -79.66814 5963 ft 265 kts 293°
2026-05-04 02:18 25.87412 -79.68659 5973 ft 265 kts 293°
2026-05-04 02:18 25.88208 -79.70504 5982 ft 265 kts 293°
2026-05-04 02:19 25.89002 -79.72351 5990 ft 265 kts 293°
2026-05-04 02:19 25.89796 -79.74197 5994 ft 266 kts 293°
2026-05-04 02:19 25.90593 -79.76056 5991 ft 267 kts 293°
2026-05-04 02:19 25.91387 -79.77916 5991 ft 267 kts 293°
2026-05-04 02:20 25.92180 -79.79777 5989 ft 267 kts 293°
2026-05-04 02:20 25.92971 -79.81634 5988 ft 265 kts 292°
2026-05-04 02:20 25.93758 -79.83484 5991 ft 265 kts 292°
2026-05-04 02:20 25.94544 -79.85329 5994 ft 264 kts 292°
2026-05-04 02:21 25.95330 -79.87176 5996 ft 264 kts 292°
2026-05-04 02:21 25.96116 -79.89025 5997 ft 264 kts 292°
2026-05-04 02:21 25.96900 -79.90872 5997 ft 265 kts 292°
2026-05-04 02:21 25.97687 -79.92722 5998 ft 265 kts 292°
2026-05-04 02:22 25.98469 -79.94545 5996 ft 265 kts 294°
2026-05-04 02:22 25.99512 -79.96248 5999 ft 269 kts 307°
2026-05-04 02:22 26.00760 -79.97798 6002 ft 269 kts 309°
2026-05-04 02:22 26.02025 -79.99330 6002 ft 269 kts 309°
2026-05-04 02:23 26.03285 -80.00866 6003 ft 269 kts 309°
2026-05-04 02:23 26.04543 -80.02406 6003 ft 269 kts 309°
2026-05-04 02:23 26.05797 -80.03948 6004 ft 269 kts 309°
2026-05-04 02:23 26.07051 -80.05500 6007 ft 270 kts 309°
2026-05-04 02:24 26.08304 -80.07051 5990 ft 268 kts 309°
2026-05-04 02:24 26.09541 -80.08579 5625 ft 265 kts 309°
2026-05-04 02:24 26.10772 -80.10101 5198 ft 265 kts 309°
2026-05-04 02:24 26.12001 -80.11622 4792 ft 264 kts 309°
2026-05-04 02:25 26.13226 -80.13140 4363 ft 264 kts 310°
2026-05-04 02:25 26.14392 -80.14703 3940 ft 262 kts 301°
2026-05-04 02:25 26.15035 -80.16564 3508 ft 257 kts 276°
2026-05-04 02:25 26.15106 -80.18540 3145 ft 258 kts 269°
2026-05-04 02:26 26.15085 -80.20536 3001 ft 259 kts 269°
2026-05-04 02:26 26.15070 -80.22538 2981 ft 259 kts 269°
2026-05-04 02:26 26.15065 -80.24548 2989 ft 260 kts 269°
2026-05-04 02:26 26.15062 -80.26555 2995 ft 259 kts 270°
2026-05-04 02:27 26.15066 -80.28493 2990 ft 242 kts 270°
2026-05-04 02:27 26.14950 -80.30280 2937 ft 223 kts 252°
2026-05-04 02:27 26.14234 -80.31754 2670 ft 215 kts 228°
2026-05-04 02:27 26.13009 -80.32666 2234 ft 215 kts 196°
2026-05-04 02:28 26.11572 -80.32759 2044 ft 199 kts 174°
2026-05-04 02:28 26.10341 -80.32249 1986 ft 189 kts 141°
2026-05-04 02:28 26.09524 -80.31113 2003 ft 189 kts 123°
2026-05-04 02:28 26.08810 -80.29888 2001 ft 189 kts 123°
2026-05-04 02:29 26.08116 -80.28650 2008 ft 189 kts 116°
2026-05-04 02:29 26.07792 -80.27293 1908 ft 175 kts 96°
2026-05-04 02:29 26.07753 -80.25985 1689 ft 165 kts 89°
2026-05-04 02:29 26.07745 -80.24741 1480 ft 156 kts 89°
2026-05-04 02:30 26.07739 -80.23602 1264 ft 144 kts 89°
2026-05-04 02:30 26.07733 -80.22473 1065 ft 144 kts 88°
2026-05-04 02:30 26.07727 -80.21383 892 ft 143 kts 89°
2026-05-04 02:30 26.07721 -80.20282 710 ft 142 kts 88°
2026-05-04 02:31 26.07715 -80.19187 516 ft 142 kts 89°
2026-05-04 02:31 26.07701 -80.18098 334 ft 140 kts 89°
2026-05-04 02:31 26.07696 -80.17017 169 ft 139 kts 88°
2026-05-04 02:31 26.07691 -80.15949 30 ft 133 kts 88°
2026-05-04 02:32 26.07687 -80.15116 21 ft 68 kts 90°
2026-05-04 02:32 26.07680 -80.14790 25 ft 29 kts 94°
2026-05-04 02:32 26.07647 -80.14637 26 ft 17 kts 110°
2026-05-04 02:32 26.07603 -80.14543 23 ft 9 kts 122°
2026-05-04 02:33 26.07565 -80.14507 22 ft 3 kts 204°
2026-05-04 02:33 26.07560 -80.14539 22 ft 6 kts 268°
2026-05-04 02:33 26.07560 -80.14608 22 ft 10 kts 270°
2026-05-04 02:33 26.07561 -80.14695 22 ft 12 kts 270°
2026-05-04 02:34 26.07505 -80.14761 21 ft 14 kts 203°
2026-05-04 02:34 26.07448 -80.14804 21 ft 14 kts 226°
2026-05-04 02:34 26.07377 -80.14854 21 ft 17 kts 185°
2026-05-04 02:35 26.07288 -80.14855 21 ft 13 kts 180°
2026-05-04 02:35 26.07196 -80.14856 21 ft 14 kts 180°
2026-05-04 02:35 26.07101 -80.14857 21 ft 13 kts 172°
2026-05-04 02:35 26.07046 -80.14817 21 ft 10 kts 136°
2026-05-04 02:36 26.07022 -80.14778 21 ft 6 kts 83°
2026-05-04 02:36 26.07041 -80.14736 21 ft 7 kts 55°
2026-05-04 02:36 26.07059 -80.14708 21 ft 1 kts 56°